QPF
0.02 0.02 0.02 0.02 0.02 0.02 0.02 0.02 0.02 0.01 0.01 0.01 0.02 0.01 0.02 0.02 0.02 0.04 0.07 0.11 0.12 0.08 0.07 0.04 0.02 0.02 0.02 0.04 0.06 0.06 0.04 0.03 0.04 0.06 0.06 0.07 0.09 0.11 0.08 0.06 0.06 0.06 0.05
0.06 0.04 0.03 0.02 0.02 0.02 0.02 0.02 0.02 0.02 0.02 0.02 0.02 0.02 0.03 0.03 0.03 0.03 0.05 0.06 0.04 0.04 0.04 0.03 0.02 0.02 0.02 0.03 0.06 0.09 0.08 0.05 0.05 0.05 0.06 0.05 0.06 0.06 0.08 0.08 0.06 0.06 0.06
0.09 0.06 0.05 0.04 0.03 0.03 0.02 0.01 0.01 0.02 0.02 0.03 0.03 0.03 0.03 0.04 0.06 0.05 0.04 0.05 0.04 0.05 0.04 0.04 0.04 0.04 0.04 0.04 0.03 0.04 0.05 0.05 0.06 0.05 0.04 0.03 0.03 0.04 0.07 0.06 0.05 0.06 0.07
0.11 0.13 0.08 0.06 0.06 0.05 0.07 0.04 0.03 0.03 0.02 0.03 0.05 0.06 0.04 0.03 0.02 0.03 0.03 0.04 0.05 0.06 0.05 0.06 0.06 0.05 0.05 0.03 0.03 0.03 0.03 0.04 0.05 0.05 0.03 0.03 0.03 0.04 0.04 0.05 0.05 0.06 0.06
0.14 0.28 0.16 0.08 0.08 0.07 0.06 0.06 0.05 0.05 0.03 0.02 0.03 0.04 0.04 0.04 0.04 0.04 0.04 0.05 0.05 0.05 0.05 0.06 0.05 0.07 0.08 0.06 0.06 0.06 0.06 0.05 0.06 0.05 0.04 0.04 0.03 0.03 0.04 0.03 0.05 0.06 0.05
0.08 0.17 0.21 0.08 0.06 0.06 0.06 0.08 0.09 0.06 0.04 0.04 0.04 0.04 0.05 0.06 0.07 0.07 0.08 0.07 0.06 0.06 0.05 0.04 0.07 0.11 0.11 0.12 0.14 0.10 0.08 0.07 0.06 0.06 0.05 0.05 0.04 0.04 0.04 0.03 0.02 0.02 0.02
0.14 0.08 0.09 0.07 0.06 0.07 0.07 0.07 0.07 0.06 0.07 0.08 0.06 0.05 0.07 0.07 0.07 0.08 0.08 0.06 0.05 0.06 0.06 0.05 0.06 0.06 0.07 0.07 0.08 0.08 0.08 0.07 0.06 0.06 0.07 0.06 0.04 0.04 0.04 0.04 0.03 0.03 0.02
0.07 0.04 0.04 0.04 0.05 0.06 0.06 0.07 0.08 0.09 0.08 0.06 0.04 0.05 0.07 0.07 0.08 0.08 0.08 0.07 0.05 0.05 0.06 0.06 0.06 0.05 0.04 0.05 0.07 0.08 0.08 0.08 0.08 0.08 0.07 0.05 0.05 0.07 0.07 0.06 0.06 0.04 0.03
0.04 0.04 0.04 0.04 0.03 0.02 0.03 0.05 0.06 0.06 0.06 0.06 0.06 0.06 0.06 0.06 0.06 0.05 0.06 0.05 0.05 0.05 0.07 0.08 0.05 0.04 0.04 0.05 0.07 0.08 0.08 0.09 0.09 0.09 0.09 0.07 0.06 0.08 0.08 0.08 0.09 0.09 0.07
0.08 0.07 0.07 0.05 0.03 0.02 0.02 0.03 0.03 0.04 0.05 0.06 0.05 0.05 0.05 0.05 0.05 0.04 0.05 0.05 0.07 0.07 0.08 0.06 0.04 0.03 0.04 0.05 0.08 0.09 0.09 0.09 0.08 0.08 0.08 0.08 0.09 0.09 0.08 0.07 0.07 0.08 0.09
0.12 0.12 0.08 0.08 0.05 0.03 0.02 0.02 0.04 0.05 0.08 0.08 0.07 0.05 0.05 0.05 0.07 0.07 0.07 0.08 0.07 0.08 0.08 0.06 0.04 0.04 0.04 0.06 0.09 0.07 0.08 0.10 0.10 0.10 0.08 0.07 0.08 0.06 0.06 0.06 0.06 0.06 0.08
0.10 0.08 0.09 0.08 0.06 0.04 0.03 0.03 0.05 0.06 0.08 0.09 0.07 0.05 0.05 0.04 0.05 0.06 0.06 0.07 0.07 0.07 0.07 0.07 0.05 0.04 0.06 0.08 0.08 0.07 0.06 0.07 0.06 0.07 0.08 0.07 0.08 0.08 0.08 0.08 0.07 0.06 0.08
0.07 0.06 0.08 0.14 0.10 0.05 0.05 0.10 0.07 0.10 0.11 0.10 0.07 0.07 0.06 0.05 0.05 0.04 0.06 0.08 0.09 0.08 0.07 0.07 0.06 0.05 0.07 0.08 0.07 0.07 0.07 0.08 0.07 0.08 0.09 0.10 0.11 0.11 0.10 0.10 0.09 0.08 0.09
0.08 0.07 0.10 0.13 0.07 0.05 0.07 0.13 0.10 0.08 0.11 0.12 0.11 0.10 0.08 0.06 0.07 0.07 0.08 0.09 0.09 0.09 0.07 0.07 0.06 0.07 0.07 0.07 0.08 0.10 0.09 0.08 0.07 0.07 0.08 0.09 0.08 0.07 0.08 0.08 0.07 0.09 0.11
0.07 0.14 0.12 0.07 0.05 0.06 0.08 0.14 0.11 0.08 0.09 0.10 0.09 0.08 0.07 0.07 0.07 0.07 0.08 0.10 0.12 0.11 0.09 0.08 0.07 0.07 0.07 0.06 0.08 0.11 0.09 0.09 0.08 0.07 0.06 0.06 0.08 0.08 0.09 0.08 0.09 0.13 0.10
0.06 0.11 0.12 0.13 0.13 0.07 0.04 0.07 0.07 0.04 0.05 0.05 0.04 0.05 0.06 0.07 0.07 0.07 0.10 0.14 0.16 0.15 0.11 0.08 0.08 0.07 0.07 0.08 0.10 0.08 0.07 0.07 0.07 0.07 0.08 0.09 0.09 0.09 0.10 0.09 0.10 0.10 0.09
0.15 0.18 0.16 0.19 0.14 0.06 0.04 0.03 0.03 0.04 0.04 0.03 0.03 0.04 0.05 0.06 0.08 0.10 0.13 0.18 0.18 0.15 0.10 0.08 0.07 0.07 0.07 0.09 0.09 0.07 0.06 0.07 0.07 0.07 0.06 0.06 0.06 0.06 0.06 0.08 0.09 0.09 0.10
0.09 0.14 0.14 0.13 0.09 0.05 0.04 0.03 0.03 0.03 0.03 0.02 0.03 0.05 0.06 0.06 0.07 0.07 0.08 0.10 0.10 0.09 0.09 0.07 0.06 0.07 0.08 0.09 0.07 0.06 0.06 0.06 0.06 0.05 0.04 0.04 0.04 0.05 0.07 0.08 0.07 0.07 0.07
0.09 0.11 0.09 0.06 0.06 0.06 0.05 0.04 0.03 0.04 0.04 0.04 0.05 0.06 0.06 0.07 0.07 0.06 0.06 0.08 0.10 0.10 0.10 0.08 0.06 0.07 0.07 0.07 0.06 0.05 0.04 0.04 0.05 0.05 0.05 0.05 0.05 0.05 0.07 0.06 0.05 0.06 0.07
0.06 0.11 0.12 0.05 0.05 0.05 0.07 0.06 0.06 0.06 0.06 0.05 0.06 0.07 0.07 0.07 0.07 0.06 0.07 0.08 0.07 0.07 0.08 0.06 0.05 0.05 0.05 0.05 0.04 0.03 0.03 0.04 0.04 0.05 0.06 0.07 0.06 0.05 0.06 0.07 0.08 0.08 0.10
0.06 0.06 0.06 0.06 0.05 0.06 0.09 0.08 0.07 0.06 0.07 0.08 0.08 0.08 0.06 0.05 0.05 0.04 0.05 0.05 0.05 0.06 0.05 0.04 0.04 0.04 0.03 0.02 0.02 0.02 0.02 0.03 0.03 0.03 0.03 0.05 0.07 0.06 0.06 0.07 0.11 0.13 0.13
0.07 0.07 0.06 0.06 0.06 0.07 0.09 0.12 0.13 0.10 0.14 0.12 0.09 0.07 0.06 0.05 0.05 0.05 0.04 0.04 0.04 0.05 0.04 0.03 0.02 0.02 0.02 0.02 0.03 0.03 0.04 0.04 0.04 0.03 0.03 0.03 0.05 0.05 0.07 0.09 0.12 0.14 0.12
0.06 0.05 0.05 0.04 0.04 0.04 0.03 0.04 0.04 0.05 0.09 0.11 0.07 0.08 0.10 0.10 0.09 0.08 0.06 0.05 0.05 0.05 0.05 0.04 0.03 0.02 0.04 0.05 0.06 0.06 0.05 0.04 0.03 0.04 0.05 0.05 0.05 0.05 0.05 0.05 0.05 0.06 0.06
0.05 0.04 0.04 0.03 0.02 0.02 0.01 0.02 0.03 0.03 0.04 0.06 0.07 0.09 0.10 0.10 0.09 0.08 0.07 0.05 0.04 0.04 0.03 0.03 0.03 0.04 0.04 0.05 0.06 0.07 0.07 0.07 0.05 0.04 0.04 0.04 0.04 0.03 0.03 0.03 0.03 0.04 0.05
0.04 0.03 0.03 0.02 0.02 0.01 0.01 0.01 0.02 0.02 0.04 0.07 0.06 0.07 0.11 0.08 0.07 0.06 0.04 0.03 0.02 0.02 0.03 0.03 0.03 0.03 0.04 0.05 0.06 0.06 0.06 0.07 0.07 0.05 0.04 0.03 0.03 0.03 0.02 0.02 0.02 0.04 0.05
0.04 0.03 0.02 0.02 0.02 0.01 0.01 0.01 0.02 0.03 0.04 0.06 0.07 0.07 0.08 0.06 0.06 0.07 0.04 0.03 0.02 0.02 0.02 0.03 0.03 0.04 0.04 0.04 0.04 0.04 0.05 0.05 0.05 0.04 0.03 0.03 0.03 0.03 0.02 0.02 0.02 0.03 0.04
MSLP
1014.09 1013.94 1013.83 1013.74 1013.69 1013.68 1013.71 1013.81 1013.96 1014.16 1014.40 1014.67 1014.94 1015.20 1015.42 1015.60 1015.71 1015.76 1015.74 1015.66 1015.53 1015.37 1015.17 1014.97 1014.79 1014.64 1014.55 1014.52 1014.58 1014.71 1014.93 1015.20 1015.50 1015.81 1016.09 1016.30 1016.43 1016.47 1016.40 1016.26 1016.06 1015.84 1015.64
1014.11 1013.91 1013.73 1013.57 1013.45 1013.37 1013.36 1013.45 1013.64 1013.92 1014.28 1014.68 1015.09 1015.46 1015.77 1015.99 1016.09 1016.10 1016.00 1015.83 1015.60 1015.32 1015.03 1014.74 1014.47 1014.25 1014.09 1014.01 1014.02 1014.15 1014.38 1014.70 1015.08 1015.48 1015.87 1016.19 1016.42 1016.52 1016.49 1016.34 1016.11 1015.83 1015.57
1014.12 1013.88 1013.65 1013.44 1013.26 1013.13 1013.10 1013.19 1013.42 1013.78 1014.25 1014.77 1015.30 1015.78 1016.17 1016.43 1016.54 1016.52 1016.36 1016.11 1015.78 1015.41 1015.02 1014.63 1014.26 1013.94 1013.69 1013.53 1013.49 1013.57 1013.80 1014.15 1014.59 1015.09 1015.58 1016.02 1016.35 1016.54 1016.57 1016.45 1016.21 1015.91 1015.61
1014.17 1013.91 1013.66 1013.42 1013.21 1013.07 1013.03 1013.13 1013.40 1013.82 1014.36 1014.97 1015.60 1016.16 1016.61 1016.91 1017.03 1016.99 1016.80 1016.49 1016.09 1015.64 1015.16 1014.68 1014.21 1013.79 1013.44 1013.18 1013.06 1013.09 1013.29 1013.64 1014.13 1014.70 1015.29 1015.83 1016.27 1016.55 1016.64 1016.57 1016.35 1016.05 1015.72
1014.31 1014.07 1013.83 1013.61 1013.41 1013.27 1013.24 1013.35 1013.64 1014.09 1014.67 1015.33 1016.00 1016.61 1017.09 1017.41 1017.54 1017.49 1017.28 1016.94 1016.51 1016.01 1015.47 1014.92 1014.37 1013.85 1013.40 1013.06 1012.85 1012.81 1012.96 1013.30 1013.81 1014.42 1015.07 1015.68 1016.20 1016.55 1016.71 1016.68 1016.50 1016.21 1015.88
1014.60 1014.41 1014.23 1014.06 1013.91 1013.81 1013.79 1013.92 1014.20 1014.65 1015.22 1015.87 1016.54 1017.14 1017.63 1017.94 1018.07 1018.03 1017.82 1017.48 1017.03 1016.52 1015.95 1015.35 1014.75 1014.17 1013.65 1013.22 1012.93 1012.82 1012.92 1013.23 1013.71 1014.32 1014.99 1015.64 1016.19 1016.58 1016.78 1016.78 1016.63 1016.36 1016.04
1015.07 1014.97 1014.90 1014.82 1014.74 1014.69 1014.71 1014.83 1015.10 1015.50 1016.03 1016.62 1017.23 1017.78 1018.23 1018.52 1018.64 1018.60 1018.40 1018.08 1017.65 1017.15 1016.59 1015.99 1015.37 1014.76 1014.20 1013.72 1013.37 1013.20 1013.24 1013.49 1013.92 1014.49 1015.13 1015.75 1016.29 1016.67 1016.88 1016.90 1016.76 1016.51 1016.22
1015.73 1015.76 1015.81 1015.85 1015.87 1015.89 1015.93 1016.05 1016.28 1016.62 1017.05 1017.55 1018.06 1018.53 1018.91 1019.15 1019.25 1019.21 1019.03 1018.74 1018.36 1017.90 1017.38 1016.82 1016.22 1015.62 1015.05 1014.56 1014.18 1013.97 1013.95 1014.13 1014.49 1014.98 1015.54 1016.08 1016.56 1016.89 1017.06 1017.07 1016.93 1016.70 1016.44
1016.55 1016.72 1016.91 1017.07 1017.19 1017.27 1017.35 1017.46 1017.63 1017.89 1018.23 1018.61 1019.01 1019.37 1019.66 1019.85 1019.92 1019.87 1019.71 1019.46 1019.13 1018.74 1018.29 1017.79 1017.25 1016.70 1016.17 1015.69 1015.32 1015.08 1015.02 1015.13 1015.40 1015.79 1016.23 1016.67 1017.03 1017.28 1017.39 1017.36 1017.21 1016.99 1016.75
1017.48 1017.78 1018.09 1018.36 1018.56 1018.71 1018.81 1018.91 1019.04 1019.22 1019.45 1019.73 1020.01 1020.27 1020.48 1020.61 1020.64 1020.58 1020.44 1020.24 1019.96 1019.64 1019.27 1018.85 1018.40 1017.93 1017.47 1017.05 1016.71 1016.48 1016.39 1016.44 1016.62 1016.89 1017.20 1017.50 1017.74 1017.88 1017.90 1017.82 1017.65 1017.44 1017.22
1018.45 1018.85 1019.25 1019.60 1019.86 1020.04 1020.15 1020.24 1020.34 1020.47 1020.63 1020.82 1021.01 1021.19 1021.33 1021.40 1021.41 1021.34 1021.22 1021.05 1020.83 1020.58 1020.29 1019.97 1019.61 1019.24 1018.87 1018.53 1018.25 1018.05 1017.95 1017.95 1018.05 1018.21 1018.40 1018.56 1018.67 1018.70 1018.64 1018.50 1018.30 1018.09 1017.90
1019.40 1019.86 1020.30 1020.68 1020.96 1021.16 1021.28 1021.37 1021.45 1021.54 1021.66 1021.81 1021.95 1022.08 1022.17 1022.22 1022.21 1022.14 1022.03 1021.88 1021.71 1021.52 1021.31 1021.07 1020.82 1020.55 1020.28 1020.03 1019.82 1019.66 1019.57 1019.55 1019.59 1019.66 1019.73 1019.78 1019.77 1019.70 1019.55 1019.36 1019.15 1018.94 1018.75
1020.29 1020.76 1021.20 1021.56 1021.83 1022.02 1022.14 1022.23 1022.31 1022.41 1022.53 1022.66 1022.80 1022.91 1023.00 1023.03 1023.01 1022.95 1022.85 1022.73 1022.59 1022.45 1022.29 1022.13 1021.96 1021.79 1021.62 1021.46 1021.32 1021.21 1021.15 1021.12 1021.11 1021.11 1021.10 1021.05 1020.95 1020.80 1020.59 1020.36 1020.13 1019.92 1019.75
1021.11 1021.56 1021.95 1022.26 1022.49 1022.65 1022.76 1022.85 1022.95 1023.07 1023.22 1023.38 1023.54 1023.68 1023.78 1023.82 1023.82 1023.77 1023.68 1023.57 1023.46 1023.34 1023.23 1023.12 1023.02 1022.92 1022.83 1022.74 1022.67 1022.61 1022.57 1022.54 1022.51 1022.46 1022.39 1022.27 1022.11 1021.90 1021.66 1021.40 1021.16 1020.95 1020.78
1021.90 1022.27 1022.59 1022.82 1022.99 1023.11 1023.20 1023.30 1023.43 1023.59 1023.78 1023.99 1024.19 1024.37 1024.51 1024.58 1024.60 1024.57 1024.50 1024.40 1024.30 1024.21 1024.12 1024.05 1023.99 1023.94 1023.90 1023.87 1023.84 1023.81 1023.78 1023.75 1023.70 1023.62 1023.51 1023.35 1023.15 1022.91 1022.65 1022.39 1022.14 1021.92 1021.74
1022.64 1022.95 1023.18 1023.33 1023.43 1023.50 1023.58 1023.68 1023.83 1024.03 1024.27 1024.53 1024.79 1025.01 1025.19 1025.30 1025.35 1025.34 1025.29 1025.21 1025.12 1025.04 1024.97 1024.91 1024.87 1024.85 1024.83 1024.82 1024.81 1024.79 1024.76 1024.72 1024.65 1024.55 1024.41 1024.22 1024.00 1023.75 1023.49 1023.22 1022.97 1022.75 1022.56
1023.37 1023.61 1023.76 1023.84 1023.88 1023.92 1023.97 1024.08 1024.24 1024.47 1024.75 1025.05 1025.35 1025.62 1025.83 1025.98 1026.06 1026.08 1026.05 1025.99 1025.92 1025.84 1025.78 1025.73 1025.69 1025.67 1025.65 1025.63 1025.61 1025.58 1025.53 1025.46 1025.36 1025.24 1025.07 1024.87 1024.64 1024.39 1024.13 1023.86 1023.62 1023.39 1023.19
1024.04 1024.25 1024.35 1024.39 1024.40 1024.40 1024.44 1024.55 1024.72 1024.96 1025.25 1025.57 1025.90 1026.19 1026.43 1026.61 1026.72 1026.77 1026.76 1026.73 1026.67 1026.61 1026.56 1026.50 1026.46 1026.42 1026.39 1026.34 1026.29 1026.22 1026.13 1026.02 1025.89 1025.73 1025.54 1025.33 1025.09 1024.84 1024.58 1024.33 1024.08 1023.85 1023.64
1024.64 1024.84 1024.94 1024.97 1024.96 1024.97 1025.00 1025.10 1025.27 1025.51 1025.80 1026.11 1026.43 1026.73 1026.98 1027.18 1027.32 1027.39 1027.43 1027.42 1027.39 1027.35 1027.30 1027.25 1027.19 1027.13 1027.06 1026.98 1026.88 1026.76 1026.63 1026.47 1026.30 1026.10 1025.89 1025.66 1025.42 1025.17 1024.92 1024.67 1024.43 1024.20 1023.97
1025.13 1025.36 1025.48 1025.53 1025.55 1025.57 1025.62 1025.71 1025.87 1026.09 1026.36 1026.65 1026.96 1027.24 1027.49 1027.70 1027.86 1027.96 1028.03 1028.05 1028.05 1028.03 1028.00 1027.95 1027.88 1027.80 1027.70 1027.58 1027.44 1027.27 1027.09 1026.89 1026.67 1026.44 1026.20 1025.96 1025.72 1025.47 1025.23 1024.99 1024.75 1024.52 1024.29
1025.47 1025.75 1025.93 1026.04 1026.10 1026.16 1026.23 1026.33 1026.48 1026.68 1026.92 1027.18 1027.45 1027.72 1027.96 1028.17 1028.34 1028.47 1028.56 1028.62 1028.65 1028.65 1028.63 1028.58 1028.51 1028.42 1028.29 1028.14 1027.96 1027.76 1027.55 1027.31 1027.07 1026.82 1026.56 1026.31 1026.06 1025.82 1025.59 1025.35 1025.13 1024.90 1024.66
1025.67 1026.01 1026.26 1026.44 1026.56 1026.67 1026.77 1026.89 1027.04 1027.23 1027.44 1027.67 1027.91 1028.15 1028.38 1028.59 1028.77 1028.91 1029.03 1029.11 1029.16 1029.18 1029.17 1029.13 1029.06 1028.95 1028.82 1028.66 1028.47 1028.25 1028.02 1027.77 1027.52 1027.26 1027.01 1026.75 1026.51 1026.27 1026.05 1025.82 1025.60 1025.37 1025.14
1025.75 1026.15 1026.47 1026.72 1026.91 1027.08 1027.22 1027.37 1027.52 1027.70 1027.89 1028.11 1028.33 1028.55 1028.77 1028.97 1029.15 1029.31 1029.43 1029.52 1029.58 1029.61 1029.60 1029.56 1029.49 1029.39 1029.25 1029.10 1028.91 1028.71 1028.49 1028.26 1028.02 1027.78 1027.54 1027.29 1027.06 1026.83 1026.61 1026.40 1026.18 1025.96 1025.72
1025.77 1026.21 1026.58 1026.89 1027.15 1027.36 1027.55 1027.73 1027.90 1028.08 1028.28 1028.48 1028.69 1028.90 1029.11 1029.31 1029.49 1029.64 1029.76 1029.85 1029.90 1029.92 1029.91 1029.86 1029.79 1029.69 1029.57 1029.44 1029.28 1029.12 1028.94 1028.74 1028.54 1028.33 1028.11 1027.90 1027.68 1027.46 1027.25 1027.04 1026.82 1026.60 1026.36
1025.79 1026.25 1026.65 1027.00 1027.29 1027.55 1027.78 1027.98 1028.18 1028.37 1028.57 1028.78 1028.99 1029.21 1029.42 1029.61 1029.78 1029.92 1030.03 1030.09 1030.13 1030.12 1030.09 1030.03 1029.95 1029.86 1029.76 1029.66 1029.55 1029.44 1029.31 1029.17 1029.02 1028.86 1028.68 1028.49 1028.30 1028.09 1027.88 1027.67 1027.46 1027.23 1026.99
1025.86 1026.31 1026.71 1027.07 1027.38 1027.66 1027.91 1028.14 1028.36 1028.57 1028.78 1029.00 1029.22 1029.44 1029.65 1029.84 1030.01 1030.13 1030.21 1030.25 1030.25 1030.21 1030.15 1030.07 1029.99 1029.91 1029.83 1029.77 1029.71 1029.65 1029.59 1029.52 1029.43 1029.31 1029.18 1029.02 1028.84 1028.64 1028.44 1028.22 1028.00 1027.76 1027.51
Thickness
5814 5814 5811 5809 5804 5800 5797 5794 5791 5789 5786 5782 5779 5775 5772 5773 5772 5771 5770 5768 5766 5764 5763 5761 5759 5757 5755 5754 5753 5751 5748 5745 5745 5740 5737 5739 5741 5741 5741 5740 5739 5738 5737
5808 5810 5809 5808 5804 5801 5798 5795 5792 5789 5787 5784 5781 5778 5775 5773 5772 5771 5769 5768 5767 5765 5763 5761 5758 5757 5754 5752 5751 5749 5746 5744 5744 5738 5731 5728 5731 5737 5741 5740 5740 5739 5738
5808 5808 5807 5806 5804 5800 5798 5797 5794 5791 5788 5786 5781 5777 5773 5771 5769 5768 5767 5767 5766 5764 5762 5760 5758 5756 5754 5751 5750 5749 5746 5741 5742 5741 5733 5725 5722 5728 5735 5739 5739 5739 5738
5811 5809 5808 5806 5805 5803 5802 5798 5795 5792 5789 5786 5781 5775 5770 5767 5768 5768 5767 5766 5765 5764 5762 5760 5758 5756 5754 5752 5750 5750 5747 5744 5739 5739 5739 5736 5733 5726 5725 5732 5736 5738 5737
5814 5812 5813 5810 5808 5806 5802 5798 5794 5791 5789 5787 5783 5777 5773 5770 5769 5768 5765 5764 5764 5763 5762 5760 5758 5756 5754 5753 5751 5750 5748 5745 5741 5738 5737 5735 5733 5731 5725 5722 5728 5732 5736
5817 5816 5816 5811 5807 5806 5803 5798 5794 5791 5790 5787 5783 5779 5774 5770 5767 5764 5762 5762 5762 5761 5761 5760 5758 5756 5755 5753 5751 5750 5748 5746 5743 5741 5738 5734 5731 5729 5726 5723 5723 5725 5731
5818 5815 5812 5810 5807 5805 5803 5799 5794 5791 5789 5786 5783 5780 5776 5772 5768 5765 5762 5760 5759 5758 5759 5759 5758 5756 5755 5753 5752 5750 5748 5746 5743 5741 5739 5737 5735 5734 5730 5726 5723 5723 5727
5819 5817 5815 5812 5809 5807 5803 5799 5795 5792 5790 5787 5783 5781 5777 5773 5770 5767 5764 5761 5760 5759 5759 5759 5758 5756 5754 5753 5751 5749 5747 5745 5743 5741 5739 5737 5737 5736 5733 5729 5724 5720 5721
5816 5816 5814 5812 5809 5807 5804 5801 5796 5793 5790 5787 5784 5780 5777 5774 5770 5768 5765 5763 5761 5760 5760 5758 5757 5755 5753 5752 5750 5747 5746 5744 5742 5740 5738 5737 5736 5736 5735 5733 5729 5722 5716
5811 5811 5810 5809 5809 5807 5804 5801 5797 5794 5791 5788 5784 5780 5776 5773 5771 5768 5765 5763 5761 5760 5759 5757 5755 5753 5752 5750 5748 5745 5744 5741 5740 5739 5737 5735 5735 5735 5734 5733 5730 5727 5721
5809 5807 5807 5806 5806 5805 5802 5798 5794 5790 5787 5784 5781 5777 5774 5771 5769 5767 5765 5763 5761 5759 5758 5755 5753 5751 5749 5747 5745 5743 5741 5739 5738 5737 5735 5734 5733 5732 5731 5731 5729 5726 5723
5804 5804 5804 5801 5799 5796 5796 5793 5790 5787 5784 5782 5779 5775 5771 5769 5767 5765 5763 5761 5759 5757 5755 5753 5751 5749 5747 5745 5742 5740 5739 5737 5735 5734 5732 5732 5732 5729 5729 5727 5726 5724 5722
5797 5798 5797 5795 5793 5791 5791 5789 5787 5785 5782 5778 5774 5771 5769 5766 5764 5763 5761 5759 5756 5754 5752 5750 5747 5746 5744 5742 5740 5738 5736 5734 5733 5731 5730 5729 5728 5726 5725 5724 5723 5722 5721
5792 5791 5790 5789 5788 5788 5787 5784 5781 5782 5779 5776 5771 5768 5766 5764 5762 5760 5758 5756 5754 5751 5749 5746 5744 5742 5741 5739 5737 5735 5733 5731 5730 5729 5728 5727 5725 5724 5722 5721 5719 5718 5715
5784 5784 5783 5783 5783 5783 5782 5780 5778 5777 5776 5772 5768 5765 5764 5762 5759 5756 5754 5752 5750 5747 5745 5742 5740 5738 5736 5735 5733 5731 5729 5727 5725 5725 5724 5724 5723 5722 5721 5719 5716 5714 5710
5778 5778 5779 5779 5778 5778 5777 5776 5775 5774 5772 5768 5765 5763 5761 5758 5755 5753 5751 5748 5745 5743 5740 5737 5735 5733 5732 5731 5730 5728 5725 5723 5721 5719 5719 5718 5717 5717 5716 5715 5713 5710 5706
5773 5773 5773 5774 5774 5775 5774 5772 5771 5770 5768 5765 5761 5759 5757 5754 5751 5749 5746 5743 5740 5738 5735 5732 5730 5728 5727 5727 5725 5723 5721 5718 5716 5715 5713 5713 5712 5710 5709 5707 5706 5703 5701
5769 5769 5769 5770 5772 5773 5771 5769 5767 5764 5762 5760 5757 5755 5753 5750 5748 5744 5741 5738 5736 5733 5729 5726 5724 5722 5721 5721 5719 5718 5715 5713 5711 5709 5708 5706 5704 5703 5701 5700 5697 5694 5692
5767 5766 5768 5768 5768 5766 5765 5763 5760 5758 5755 5753 5752 5751 5749 5746 5743 5739 5736 5733 5730 5727 5724 5721 5719 5717 5715 5715 5714 5712 5708 5705 5703 5702 5701 5699 5697 5696 5695 5692 5688 5685 5683
5763 5764 5763 5762 5761 5759 5758 5755 5752 5750 5748 5748 5747 5747 5745 5742 5738 5735 5731 5729 5725 5721 5718 5715 5713 5711 5709 5708 5707 5706 5702 5698 5695 5694 5692 5691 5690 5688 5686 5684 5680 5675 5672
5755 5755 5754 5752 5751 5751 5750 5746 5743 5741 5742 5743 5742 5741 5739 5736 5734 5730 5727 5723 5719 5715 5711 5708 5705 5704 5702 5700 5699 5698 5695 5691 5688 5685 5683 5681 5680 5679 5677 5675 5672 5668 5665
5745 5745 5744 5742 5743 5743 5742 5738 5735 5737 5737 5736 5735 5734 5732 5730 5727 5723 5720 5716 5712 5707 5703 5700 5697 5695 5694 5693 5691 5690 5687 5685 5681 5676 5674 5673 5671 5670 5667 5664 5661 5659 5656
5734 5735 5734 5733 5734 5735 5735 5732 5731 5732 5731 5730 5727 5725 5723 5721 5718 5715 5711 5707 5704 5700 5695 5692 5689 5686 5685 5684 5683 5681 5679 5676 5673 5669 5666 5664 5662 5659 5656 5653 5651 5648 5644
5725 5725 5725 5724 5723 5726 5727 5727 5726 5726 5724 5721 5719 5717 5714 5711 5708 5706 5703 5699 5696 5692 5688 5685 5681 5678 5676 5675 5673 5671 5669 5666 5663 5659 5656 5654 5651 5648 5645 5642 5639 5636 5633
5716 5717 5717 5715 5715 5717 5717 5718 5718 5718 5716 5713 5711 5709 5706 5702 5698 5694 5690 5688 5686 5685 5682 5678 5675 5671 5667 5665 5664 5662 5659 5656 5653 5650 5646 5642 5638 5635 5631 5629 5626 5624 5621
5708 5708 5708 5707 5707 5707 5707 5708 5709 5710 5708 5705 5703 5700 5697 5694 5689 5684 5678 5675 5675 5674 5673 5670 5667 5663 5660 5657 5655 5653 5651 5648 5645 5641 5635 5630 5626 5622 5619 5616 5613 5611 5607